Location: Newark
(25.7507°S, 31.4676°E)
Time: 07:24:47
(UTC+00:00)

Hubble Space Telescope - Pass Details

Date: 24 January 2020
Orbit: 536 x 540 km, 28.5° (Epoch: 20 February)

Event Time Altitude Azimuth Distance (km) Brightness Sun altitude
Rises 18:36:05 0° 287° (WNW) 2,682 4.9 -22.0°
Reaches altitude 10° 18:38:21 10° 288° (WNW) 1,793 3.9 -22.4°
Enters shadow 18:42:06 71° 309° (NW) 573 0.8 -23.1°
